Vorticity
7 6 5 4 3 2 2 4 11 4 7 13 5 -2 9 28 -14 12 13 2 5 -5 3 8 4 9 8 0 3 7 9 8 6 22 31 16 7 18 16 11 0 13 9 12
8 7 5 6 7 9 8 6 8 4 -9 -11 -6 6 2 17 14 16 5 32 2 15 8 10 2 6 1 4 1 4 12 10 12 16 14 9 16 7 17 8 -5 1 9 6
8 10 6 8 11 15 18 21 24 20 25 22 17 11 19 29 14 17 20 -9 7 12 8 15 4 7 1 4 2 14 14 10 9 8 6 14 11 12 9 11 10 9 18 2
9 5 14 17 20 22 23 20 24 31 19 28 26 41 32 35 23 2 -3 -13 15 10 13 5 7 5 3 6 2 18 10 10 10 10 14 13 12 0 11 10 16 13 17 5
20 24 18 22 22 23 20 17 23 28 35 38 30 51 29 -24 58 16 13 24 27 20 3 6 3 -4 8 6 12 16 13 8 6 2 10 8 7 14 2 14 14 10 11 19
25 18 14 13 13 11 15 23 24 36 59 38 13 54 4 -29 64 -16 36 21 -10 6 8 2 -1 -2 4 11 9 14 17 15 -0 -4 13 11 12 14 -2 -1 30 -6 1 19
10 13 13 14 21 22 10 27 42 35 -0 25 -49 62 -29 36 11 8 7 -24 -31 5 -10 14 -1 6 6 7 5 3 5 9 -9 4 13 4 10 21 24 -10 22 4 0 5
14 11 12 18 10 7 33 14 -2 14 14 51 17 22 -15 35 -36 -17 18 17 18 -0 9 7 11 9 14 1 -4 32 -4 -2 7 7 14 0 17 14 6 8 23 21 -3 28
10 17 8 14 14 14 -1 36 -18 37 19 15 21 25 53 8 36 -34 21 62 -3 24 -5 4 13 -7 13 13 8 -14 -18 -3 28 31 24 14 28 13 2 9 7 10 16 22
16 16 12 12 21 10 17 19 2 30 -6 17 16 -7 1 35 31 19 50 -7 29 22 7 -15 4 9 -6 0 31 4 4 25 12 6 2 10 16 16 11 6 8 4 9 13
15 16 9 8 15 18 2 16 12 43 25 37 -22 14 5 23 16 14 33 -23 23 50 23 17 -4 7 -21 -22 7 21 4 16 -5 2 18 24 13 9 10 13 9 11 4 0
16 12 7 17 13 16 15 18 12 16 16 33 -2 0 30 14 26 9 26 23 -2 -34 -14 8 -19 16 5 12 7 5 16 4 -1 13 2 16 10 12 -3 9 10 13 14 12
16 12 10 13 13 8 8 17 17 21 16 4 34 -55 31 19 5 21 28 30 26 2 13 12 5 17 22 -9 20 14 25 1 12 10 8 1 0 -3 9 5 5 4 5 4
15 13 12 15 11 13 14 16 5 6 16 18 -30 21 -2 31 24 7 29 36 45 22 37 -20 -3 1 13 9 3 19 27 13 7 1 14 10 13 6 6 8 2 4 5 6
15 14 9 15 10 17 21 23 -1 23 12 28 0 9 -18 34 11 19 14 20 31 -7 11 1 23 5 8 1 22 14 4 1 6 3 21 8 -3 6 7 7 3 4 10 12
15 9 11 15 21 23 29 23 14 34 -6 10 -3 -24 21 16 20 26 15 6 48 -1 -31 36 20 9 -5 28 -3 6 -4 -6 5 8 18 16 -16 2 17 6 5 10 9 5
19 7 16 6 23 13 31 2 13 22 37 2 3 18 -8 24 -4 3 -2 39 1 14 -11 20 21 10 19 27 -2 -7 -15 2 -1 -2 3 2 9 22 13 14 9 2 11 14
19 2 23 14 23 29 13 18 6 1 13 19 12 23 -34 -10 50 -13 -44 -8 25 13 6 -11 13 16 16 -6 31 -1 -17 -23 22 16 -3 19 13 4 3 -5 -6 9 9 10
15 7 1 13 14 13 14 -2 20 -3 14 4 8 15 11 -13 2 44 14 8 -21 28 30 14 23 25 30 34 38 5 13 16 9 34 29 24 11 15 11 4 11 15 6 6
10 16 8 17 15 34 14 21 2 22 10 1 17 22 28 27 22 9 17 21 17 -9 14 19 20 14 -14 20 27 34 33 17 19 -0 13 17 9 8 5 12 3 -1 -3 0
9 -0 11 4 4 35 1 -4 -0 16 16 23 13 31 -34 11 -11 6 25 13 5 -2 33 5 14 28 29 26 15 12 4 11 19 12 4 8 7 14 18 4 -0 -2 3 14
10 5 13 23 22 23 1 19 5 12 40 -18 20 26 14 -0 13 15 13 13 -5 12 -4 3 14 6 9 17 20 31 30 11 9 13 9 1 2 6 7 7 8 8 8 7
5 9 8 22 9 17 13 28 -5 8 34 32 1 9 17 10 2 18 12 10 -5 -6 10 7 -11 19 4 26 -22 -4 1 -3 6 19 11 8 5 7 7 7 8 8 7 10
8 -0 17 3 15 22 21 34 -7 9 22 45 15 -0 -2 12 22 9 15 20 7 21 -3 44 60 15 4 -2 -21 -2 -5 1 21 21 8 10 4 9 12 10 6 14 15 22
9 10 7 32 9 4 27 37 1 5 -9 24 22 32 27 29 -15 8 10 4 -12 -22 25 19 21 -15 -7 0 5 14 16 11 -1 2 18 15 10 10 13 14 18 21 14 7
4 7 8 7 21 -17 39 25 3 23 -1 11 18 0 2 20 37 14 -4 -2 -1 24 5 -16 7 13 9 10 3 7 -5 9 13 14 11 13 16 16 16 14 8 4 3 3
3 0 27 -2 29 14 5 27 14 8 20 -6 -0 3 14 -2 8 25 32 -4 -19 -15 2 -1 6 7 -8 -11 3 12 18 16 15 24 27 18 11 10 5 3 -0 3 5 3
Height
5602 5608 5614 5617 5617 5620 5626 5632 5645 5676 5664 5652 5662 5664 5684 5697 5711 5722 5727 5737 5748 5756 5762 5766 5769 5775 5777 5779 5780 5777 5776 5776 5774 5781 5780 5779 5781 5785 5787 5783 5787 5785 5786 5786
5578 5584 5589 5593 5593 5595 5598 5603 5618 5640 5631 5623 5640 5653 5662 5668 5689 5701 5706 5719 5731 5743 5747 5752 5758 5764 5767 5767 5769 5768 5768 5766 5767 5770 5771 5770 5772 5775 5777 5777 5778 5778 5778 5781
5554 5561 5565 5567 5569 5571 5571 5574 5583 5609 5606 5613 5618 5626 5636 5643 5664 5676 5687 5701 5713 5722 5732 5738 5745 5752 5754 5756 5757 5760 5759 5759 5759 5762 5766 5765 5766 5768 5767 5768 5767 5771 5773 5778
5532 5536 5539 5541 5544 5547 5547 5546 5551 5573 5580 5585 5588 5603 5617 5624 5639 5653 5670 5676 5688 5704 5715 5724 5730 5739 5743 5745 5747 5749 5749 5749 5751 5755 5756 5757 5759 5760 5759 5760 5761 5763 5770 5769
5509 5514 5517 5522 5526 5529 5527 5528 5537 5546 5556 5561 5567 5576 5590 5607 5624 5635 5643 5659 5679 5690 5698 5712 5722 5725 5731 5735 5738 5739 5739 5741 5743 5746 5748 5748 5749 5751 5752 5754 5756 5759 5760 5763
5493 5498 5503 5508 5512 5513 5511 5517 5523 5526 5539 5544 5550 5556 5577 5591 5611 5621 5640 5657 5664 5674 5695 5703 5708 5711 5718 5722 5725 5728 5732 5733 5735 5737 5740 5740 5736 5745 5746 5748 5749 5753 5754 5760
5480 5486 5491 5496 5499 5501 5503 5509 5513 5515 5523 5530 5535 5541 5563 5577 5595 5608 5627 5637 5649 5678 5683 5689 5692 5699 5705 5708 5713 5716 5720 5723 5726 5728 5729 5726 5734 5736 5737 5739 5743 5746 5748 5751
5468 5473 5479 5484 5487 5491 5494 5500 5504 5508 5513 5521 5531 5542 5554 5566 5579 5592 5609 5625 5653 5663 5668 5674 5679 5685 5691 5694 5701 5699 5707 5713 5714 5715 5719 5722 5725 5728 5732 5735 5737 5738 5741 5743
5458 5463 5468 5472 5476 5480 5485 5491 5497 5500 5508 5518 5528 5534 5548 5560 5571 5585 5597 5613 5627 5643 5649 5657 5659 5668 5676 5681 5691 5691 5696 5702 5704 5706 5707 5709 5719 5721 5723 5726 5729 5732 5734 5737
5447 5452 5457 5462 5466 5471 5476 5484 5488 5493 5497 5511 5518 5529 5542 5552 5566 5576 5589 5601 5611 5624 5633 5636 5643 5659 5665 5671 5680 5685 5688 5693 5694 5698 5701 5704 5711 5714 5716 5716 5730 5725 5728 5731
5437 5442 5447 5453 5459 5464 5469 5476 5481 5487 5494 5504 5516 5522 5531 5539 5550 5565 5581 5588 5596 5605 5614 5625 5636 5644 5651 5661 5671 5676 5680 5686 5689 5693 5694 5697 5706 5709 5710 5718 5715 5719 5723 5725
5428 5433 5438 5445 5451 5456 5460 5468 5475 5482 5488 5503 5506 5516 5525 5534 5548 5561 5568 5581 5592 5598 5607 5618 5626 5637 5644 5655 5662 5666 5670 5676 5684 5689 5692 5696 5699 5704 5706 5708 5711 5713 5715 5717
5419 5424 5430 5436 5443 5448 5454 5462 5468 5474 5482 5490 5499 5507 5519 5528 5537 5550 5562 5571 5580 5590 5602 5615 5620 5627 5636 5645 5651 5659 5662 5669 5673 5679 5685 5688 5690 5694 5699 5702 5704 5707 5708 5710
5411 5416 5423 5428 5434 5442 5447 5454 5462 5471 5479 5486 5496 5507 5514 5524 5531 5542 5552 5561 5572 5582 5592 5600 5610 5620 5628 5637 5645 5649 5656 5662 5667 5672 5677 5680 5681 5687 5692 5694 5696 5698 5699 5702
5404 5410 5416 5421 5428 5433 5440 5447 5454 5466 5475 5483 5493 5501 5507 5518 5529 5537 5545 5552 5562 5572 5582 5592 5604 5611 5620 5628 5635 5639 5645 5653 5658 5664 5670 5674 5676 5678 5682 5685 5686 5689 5692 5694
5396 5404 5411 5417 5422 5428 5434 5443 5449 5461 5469 5474 5485 5495 5501 5510 5516 5526 5535 5546 5554 5562 5571 5577 5592 5602 5611 5618 5625 5632 5640 5646 5650 5655 5658 5664 5666 5669 5672 5675 5679 5682 5684 5686
5390 5398 5404 5410 5414 5420 5428 5441 5449 5459 5468 5476 5484 5487 5495 5503 5511 5520 5529 5537 5546 5553 5563 5570 5583 5593 5600 5607 5616 5624 5630 5637 5641 5645 5650 5653 5656 5662 5666 5668 5671 5674 5676 5677
5383 5392 5397 5402 5408 5415 5426 5434 5441 5450 5462 5471 5475 5477 5487 5495 5504 5514 5520 5528 5540 5549 5559 5567 5573 5582 5588 5595 5607 5611 5617 5625 5630 5635 5639 5644 5647 5651 5655 5658 5661 5663 5665 5666
5376 5385 5391 5396 5403 5411 5422 5430 5435 5445 5454 5461 5467 5475 5485 5494 5502 5511 5519 5525 5532 5539 5549 5556 5565 5573 5580 5591 5594 5601 5606 5614 5621 5625 5630 5634 5640 5643 5647 5650 5652 5653 5653 5653
5372 5379 5387 5394 5401 5408 5418 5425 5431 5437 5444 5453 5460 5472 5482 5495 5502 5509 5518 5523 5529 5537 5544 5550 5557 5566 5573 5581 5586 5592 5596 5603 5610 5615 5621 5628 5633 5636 5638 5641 5642 5642 5641 5641
5367 5377 5385 5391 5395 5403 5412 5416 5423 5432 5440 5446 5454 5470 5483 5489 5497 5503 5512 5518 5526 5532 5540 5546 5554 5563 5569 5573 5580 5585 5588 5595 5603 5608 5614 5620 5623 5627 5628 5629 5629 5628 5628 5627
5368 5375 5381 5386 5390 5397 5403 5408 5420 5428 5437 5446 5458 5469 5479 5484 5493 5499 5507 5514 5520 5529 5538 5547 5555 5561 5563 5566 5572 5579 5585 5590 5596 5602 5606 5610 5613 5614 5615 5615 5615 5615 5616 5615
5362 5370 5374 5379 5385 5390 5396 5404 5417 5428 5437 5448 5457 5465 5474 5483 5489 5496 5502 5510 5518 5527 5532 5542 5554 5554 5561 5565 5570 5576 5580 5585 5590 5594 5599 5602 5603 5605 5605 5606 5607 5607 5606 5604
5358 5365 5370 5374 5381 5390 5398 5409 5420 5432 5439 5445 5453 5464 5473 5480 5487 5494 5500 5507 5517 5521 5528 5543 5548 5551 5557 5559 5564 5569 5575 5580 5584 5587 5590 5592 5593 5594 5595 5594 5594 5594 5593 5591
5353 5361 5368 5376 5384 5394 5400 5411 5420 5429 5437 5444 5453 5460 5469 5476 5482 5489 5497 5506 5512 5522 5533 5540 5544 5548 5550 5552 5557 5563 5567 5572 5574 5577 5578 5580 5581 5583 5583 5583 5583 5581 5581 5581
5350 5356 5366 5375 5382 5391 5399 5408 5418 5427 5434 5442 5448 5455 5463 5471 5478 5486 5493 5504 5514 5523 5530 5534 5537 5539 5541 5547 5553 5557 5559 5561 5564 5565 5566 5569 5571 5572 5572 5573 5571 5571 5570 5569
5347 5358 5367 5372 5380 5388 5397 5407 5418 5425 5432 5440 5448 5456 5464 5472 5478 5487 5494 5503 5511 5516 5519 5522 5526 5531 5537 5542 5545 5547 5550 5552 5555 5557 5560 5562 5563 5563 5564 5562 5563 5562 5560 5558